| time (UTC) | temp F | wind direction | speed knots | gust knots | rain 1hr in | rain 24hr in | rain mn in | humidity % | barometer mb |
| 20260508110903 | 61 | 218 | 2.6 | 4.3 | 0.00 | 0.00 | 0.00 | 78 | 1016.4 |
| 20260508110003 | 61 | 221 | 1.7 | 4.3 | 0.00 | 0.00 | 0.00 | 78 | 1016.4 |
| 20260508105403 | 60 | 216 | 2.6 | 6.1 | 0.00 | 0.00 | 0.00 | 78 | 1016.4 |
| 20260508104503 | 61 | 228 | 2.6 | 6.1 | 0.00 | 0.00 | 0.00 | 78 | 1016.5 |
| 20260508103603 | 61 | 222 | 1.7 | 3.5 | 0.00 | 0.00 | 0.00 | 77 | 1016.5 |
| 20260508102703 | 61 | 221 | 2.6 | 5.2 | 0.00 | 0.00 | 0.00 | 77 | 1016.6 |
| 20260508101803 | 63 | 215 | 2.6 | 5.2 | 0.00 | 0.00 | 0.00 | 75 | 1016.6 |
| 20260508100903 | 62 | 215 | 2.6 | 7.0 | 0.00 | 0.00 | 0.00 | 76 | 1016.5 |
| 20260508100024 | 62 | 188 | 2.6 | 7.0 | 0.00 | 0.00 | 0.00 | 76 | 1016.6 |
| 20260508095403 | 61 | 163 | 0.9 | 5.2 | 0.00 | 0.00 | 0.00 | 76 | 1016.5 |
| 20260508094503 | 60 | 189 | 1.7 | 5.2 | 0.00 | 0.00 | 0.00 | 76 | 1016.5 |
| 20260508093603 | 60 | 195 | 2.6 | 7.0 | 0.00 | 0.00 | 0.00 | 76 | 1016.5 |
| 20260508092703 | 59 | 108 | 1.7 | 4.3 | 0.00 | 0.00 | 0.00 | 75 | 1016.4 |
| 20260508091824 | 59 | 22 | 0.0 | 2.6 | 0.00 | 0.00 | 0.00 | 75 | 1016.5 |
| 20260508090903 | 59 | 35 | 1.7 | 5.2 | 0.00 | 0.00 | 0.00 | 73 | 1016.4 |
| 20260508090003 | 58 | 41 | 1.7 | 4.3 | 0.00 | 0.00 | 0.00 | 75 | 1016.4 |
| 20260508085403 | 57 | 42 | 0.9 | 3.5 | 0.00 | 0.00 | 0.00 | 76 | 1016.4 |
| 20260508084503 | 57 | 48 | 0.9 | 2.6 | 0.00 | 0.00 | 0.00 | 75 | 1016.3 |
| 20260508083603 | 57 | 57 | 1.7 | 4.3 | 0.00 | 0.00 | 0.00 | 75 | 1016.3 |
| 20260508082703 | 56 | 51 | 1.7 | 4.3 | 0.00 | 0.00 | 0.00 | 75 | 1016.1 |
| 20260508081824 | 57 | 66 | 1.7 | 3.5 | 0.00 | 0.00 | 0.00 | 74 | 1016.1 |
| 20260508080903 | 57 | 99 | 2.6 | 5.2 | 0.00 | 0.00 | 0.00 | 70 | 1016.1 |
| 20260508080003 | 56 | 86 | 2.6 | 6.1 | 0.00 | 0.00 | 0.00 | 73 | 1016.2 |
| 20260508075424 | 56 | 61 | 2.6 | 6.1 | 0.00 | 0.00 | 0.00 | 73 | 1016.2 |
| 20260508074503 | 55 | 78 | 1.7 | 4.3 | 0.00 | 0.00 | 0.00 | 73 | 1016.2 |
| 20260508073624 | 53 | 74 | 0.9 | 3.5 | 0.00 | 0.00 | 0.00 | 74 | 1016.1 |
| 20260508072703 | 52 | 80 | 2.6 | 7.0 | 0.00 | 0.00 | 0.00 | 74 | 1016.1 |
| 20260508071824 | 52 | 89 | 2.6 | 7.0 | 0.00 | 0.00 | 0.00 | 74 | 1016.0 |
| 20260508070903 | 53 | 59 | 0.9 | 3.5 | 0.00 | 0.00 | 0.00 | 74 | 1015.9 |
| 20260508070003 | 50 | 63 | 0.9 | 3.5 | 0.00 | 0.00 | 0.00 | 75 | 1015.9 |
| 20260508065403 | 50 | 55 | 1.7 | 3.5 | 0.00 | 0.00 | 0.00 | 75 | 1015.9 |
| 20260508064503 | 50 | 75 | 1.7 | 3.5 | 0.00 | 0.00 | 0.00 | 75 | 1015.9 |
| 20260508063603 | 49 | 51 | 0.9 | 2.6 | 0.00 | 0.00 | 0.00 | 76 | 1015.8 |
| 20260508062724 | 48 | 51 | 0.0 | 1.7 | 0.00 | 0.00 | 0.00 | 76 | 1015.6 |
| 20260508061803 | 48 | 0 | 0.0 | 0.0 | 0.00 | 0.00 | 0.00 | 73 | 1015.6 |
| 20260508060903 | 48 | 51 | 0.0 | 0.9 | 0.00 | 0.00 | 0.00 | 76 | 1015.5 |
| 20260508060024 | 48 | 51 | 0.0 | 1.7 | 0.00 | 0.00 | 0.00 | 76 | 1015.5 |
| 20260508055403 | 47 | 51 | 0.0 | 1.7 | 0.00 | 0.00 | 0.00 | 76 | 1015.5 |
| 20260508054524 | 47 | 51 | 0.0 | 0.9 | 0.00 | 0.00 | 0.00 | 76 | 1015.5 |
| 20260508053624 | 47 | 51 | 0.0 | 0.9 | 0.00 | 0.00 | 0.00 | 76 | 1015.3 |
| 20260508052703 | 47 | 51 | 0.0 | 1.7 | 0.00 | 0.00 | 0.00 | 77 | 1015.2 |
| 20260508051803 | 48 | 51 | 0.0 | 2.6 | 0.00 | 0.00 | 0.00 | 77 | 1015.2 |
| 20260508050903 | 47 | 51 | 0.0 | 2.6 | 0.00 | 0.00 | 0.00 | 77 | 1015.1 |
| 20260508050003 | 47 | 51 | 0.9 | 2.6 | 0.00 | 0.00 | 0.00 | 77 | 1015.0 |
| 20260508045403 | 47 | 52 | 0.9 | 2.6 | 0.00 | 0.00 | 0.00 | 78 | 1015.0 |
| 20260508044503 | 47 | 76 | 0.9 | 2.6 | 0.00 | 0.00 | 0.00 | 78 | 1015.0 |
| 20260508043603 | 47 | 92 | 0.9 | 1.7 | 0.00 | 0.00 | 0.00 | 78 | 1015.0 |
| 20260508042703 | 48 | 92 | 0.9 | 1.7 | 0.00 | 0.00 | 0.00 | 78 | 1015.0 |
| 20260508041824 | 48 | 92 | 0.9 | 5.2 | 0.00 | 0.00 | 0.00 | 78 | 1015.1 |
| 20260508040903 | 48 | 93 | 0.9 | 2.6 | 0.00 | 0.00 | 0.00 | 78 | 1014.9 |
| 20260508040004 | 48 | 94 | 0.0 | 1.7 | 0.00 | 0.00 | 0.00 | 79 | 1014.9 |
| 20260508035403 | 48 | 94 | 0.9 | 1.7 | 0.00 | 0.00 | 0.00 | 79 | 1014.8 |
| 20260508034504 | 49 | 94 | 0.9 | 1.7 | 0.00 | 0.00 | 0.00 | 80 | 1014.8 |
| 20260508033603 | 49 | 94 | 0.9 | 2.6 | 0.00 | 0.00 | 0.00 | 80 | 1014.8 |
| 20260508032703 | 49 | 93 | 1.7 | 3.5 | 0.00 | 0.00 | 0.00 | 80 | 1014.8 |
| 20260508031803 | 49 | 91 | 0.9 | 3.5 | 0.00 | 0.00 | 0.00 | 80 | 1014.9 |
| 20260508030903 | 49 | 89 | 1.7 | 5.2 | 0.00 | 0.00 | 0.00 | 80 | 1014.8 |
| 20260508030003 | 49 | 112 | 1.7 | 3.5 | 0.00 | 0.00 | 0.00 | 80 | 1014.9 |
| 20260508025403 | 49 | 131 | 1.7 | 3.5 | 0.00 | 0.00 | 0.00 | 80 | 1014.9 |
| 20260508024503 | 50 | 134 | 0.9 | 3.5 | 0.00 | 0.00 | 0.00 | 80 | 1014.9 |
| 20260508023603 | 50 | 135 | 0.9 | 2.6 | 0.00 | 0.00 | 0.00 | 80 | 1014.9 |
| 20260508022703 | 50 | 136 | 0.9 | 2.6 | 0.00 | 0.00 | 0.00 | 80 | 1015.0 |
| 20260508021803 | 50 | 0 | 0.0 | 0.0 | 0.00 | 0.00 | 0.00 | 77 | 1014.8 |
| 20260508020903 | 50 | 137 | 0.0 | 1.7 | 0.00 | 0.00 | 0.00 | 80 | 1014.7 |
| 20260508020003 | 50 | 137 | 0.9 | 2.6 | 0.00 | 0.00 | 0.00 | 80 | 1014.8 |
| 20260508015403 | 50 | 137 | 0.9 | 2.6 | 0.00 | 0.00 | 0.00 | 80 | 1014.8 |
| 20260508014503 | 50 | 168 | 1.7 | 5.2 | 0.00 | 0.00 | 0.00 | 80 | 1014.7 |
| 20260508013603 | 50 | 155 | 1.7 | 4.3 | 0.00 | 0.00 | 0.00 | 80 | 1014.8 |
| 20260508012703 | 50 | 160 | 2.6 | 5.2 | 0.00 | 0.00 | 0.00 | 80 | 1014.7 |
| 20260508011803 | 50 | 141 | 0.9 | 3.5 | 0.00 | 0.00 | 0.00 | 79 | 1014.6 |
| 20260508010903 | 50 | 139 | 0.0 | 1.7 | 0.00 | 0.00 | 0.00 | 80 | 1014.7 |
| 20260508010024 | 50 | 0 | 0.0 | 0.0 | 0.00 | 0.00 | 0.00 | 80 | 1014.5 |
| 20260508005403 | 50 | 139 | 0.0 | 0.9 | 0.00 | 0.00 | 0.00 | 80 | 1014.5 |
| 20260508004503 | 50 | 148 | 1.7 | 6.1 | 0.00 | 0.00 | 0.00 | 80 | 1014.6 |
| 20260508003603 | 50 | 131 | 2.6 | 7.8 | 0.00 | 0.00 | 0.00 | 81 | 1014.6 |
| 20260508002703 | 50 | 95 | 1.7 | 3.5 | 0.00 | 0.00 | 0.00 | 81 | 1014.5 |
| 20260508001803 | 50 | 97 | 1.7 | 3.5 | 0.00 | 0.00 | 0.00 | 81 | 1014.7 |
| 20260508000903 | 50 | 101 | 1.7 | 3.5 | 0.00 | 0.00 | 0.00 | 79 | 1014.7 |
| 20260508000003 | 50 | 99 | 1.7 | 3.5 | 0.00 | 0.00 | 0.00 | 82 | 1014.8 |
| 20260507235403 | 50 | 99 | 1.7 | 3.5 | 0.00 | 0.00 | 0.00 | 82 | 1014.7 |
| 20260507234503 | 50 | 99 | 1.7 | 3.5 | 0.00 | 0.00 | 0.00 | 82 | 1014.8 |
| 20260507233603 | 50 | 98 | 1.7 | 3.5 | 0.00 | 0.00 | 0.00 | 83 | 1014.7 |
| 20260507232703 | 50 | 97 | 1.7 | 3.5 | 0.00 | 0.00 | 0.00 | 83 | 1014.7 |
| 20260507231803 | 50 | 98 | 1.7 | 3.5 | 0.00 | 0.00 | 0.00 | 84 | 1014.7 |
| 20260507230903 | 50 | 97 | 1.7 | 5.2 | 0.00 | 0.00 | 0.00 | 84 | 1014.7 |
| 20260507230004 | 50 | 95 | 1.7 | 5.2 | 0.00 | 0.00 | 0.00 | 84 | 1014.6 |
| 20260507225403 | 50 | 91 | 1.7 | 5.2 | 0.00 | 0.00 | 0.00 | 85 | 1014.6 |
| 20260507224504 | 50 | 89 | 1.7 | 3.5 | 0.00 | 0.00 | 0.00 | 85 | 1014.5 |
| 20260507223603 | 51 | 85 | 1.7 | 5.2 | 0.00 | 0.00 | 0.00 | 85 | 1014.4 |
| 20260507222703 | 51 | 84 | 1.7 | 3.5 | 0.00 | 0.00 | 0.00 | 85 | 1014.5 |
| 20260507221803 | 52 | 82 | 1.7 | 3.5 | 0.00 | 0.00 | 0.00 | 81 | 1014.4 |
| 20260507220903 | 51 | 84 | 1.7 | 3.5 | 0.00 | 0.00 | 0.00 | 85 | 1014.5 |
| 20260507220003 | 51 | 84 | 0.9 | 2.6 | 0.00 | 0.00 | 0.00 | 85 | 1014.5 |
| 20260507215403 | 51 | 84 | 0.9 | 2.6 | 0.00 | 0.00 | 0.00 | 85 | 1014.5 |
| 20260507214524 | 52 | 84 | 0.9 | 2.6 | 0.00 | 0.00 | 0.00 | 84 | 1014.4 |
| 20260507213603 | 52 | 84 | 1.7 | 5.2 | 0.00 | 0.00 | 0.00 | 85 | 1014.4 |
| 20260507212703 | 52 | 83 | 1.7 | 3.5 | 0.00 | 0.00 | 0.00 | 84 | 1014.5 |
| 20260507211824 | 53 | 84 | 0.9 | 2.6 | 0.00 | 0.00 | 0.00 | 83 | 1014.4 |
| 20260507210903 | 53 | 89 | 1.7 | 3.5 | 0.00 | 0.00 | 0.00 | 84 | 1014.3 |
| 20260507210003 | 53 | 97 | 1.7 | 3.5 | 0.00 | 0.00 | 0.00 | 85 | 1014.4 |
| 20260507205403 | 53 | 109 | 0.9 | 3.5 | 0.00 | 0.00 | 0.00 | 85 | 1014.3 |
| 20260507204503 | 54 | 134 | 1.7 | 3.5 | 0.00 | 0.00 | 0.00 | 85 | 1014.3 |
| 20260507203603 | 54 | 146 | 2.6 | 6.1 | 0.00 | 0.00 | 0.00 | 86 | 1014.2 |
| 20260507202703 | 54 | 142 | 3.5 | 8.7 | 0.00 | 0.00 | 0.00 | 86 | 1014.2 |
| 20260507201803 | 54 | 161 | 3.5 | 6.1 | 0.00 | 0.00 | 0.00 | 86 | 1014.1 |
| 20260507200924 | 54 | 154 | 3.5 | 7.0 | 0.00 | 0.00 | 0.00 | 86 | 1013.9 |
| 20260507200003 | 54 | 145 | 4.3 | 7.8 | 0.00 | 0.00 | 0.00 | 86 | 1013.9 |
| 20260507195403 | 54 | 146 | 3.5 | 7.8 | 0.00 | 0.00 | 0.00 | 86 | 1013.8 |
| 20260507194503 | 54 | 140 | 2.6 | 6.1 | 0.00 | 0.00 | 0.00 | 86 | 1013.7 |
| 20260507193603 | 54 | 132 | 3.5 | 7.0 | 0.00 | 0.00 | 0.00 | 86 | 1013.5 |
| 20260507192703 | 54 | 152 | 2.6 | 6.1 | 0.00 | 0.00 | 0.00 | 86 | 1013.6 |
| 20260507191803 | 55 | 133 | 3.5 | 8.7 | 0.00 | 0.00 | 0.00 | 86 | 1013.6 |
| 20260507190903 | 55 | 128 | 3.5 | 7.0 | 0.00 | 0.00 | 0.00 | 85 | 1013.6 |
| 20260507190024 | 55 | 108 | 2.6 | 6.1 | 0.00 | 0.00 | 0.00 | 86 | 1013.6 |
| 20260507185403 | 55 | 92 | 2.6 | 7.8 | 0.00 | 0.00 | 0.00 | 87 | 1013.5 |
| 20260507184503 | 55 | 92 | 2.6 | 7.0 | 0.00 | 0.00 | 0.00 | 86 | 1013.5 |
| 20260507183603 | 55 | 89 | 3.5 | 7.0 | 0.00 | 0.00 | 0.00 | 86 | 1013.5 |
| 20260507182703 | 55 | 106 | 2.6 | 7.0 | 0.00 | 0.00 | 0.00 | 86 | 1013.6 |
| 20260507181803 | 56 | 87 | 1.7 | 5.2 | 0.00 | 0.00 | 0.00 | 80 | 1013.5 |
| 20260507180903 | 55 | 132 | 1.7 | 6.1 | 0.00 | 0.00 | 0.00 | 86 | 1013.4 |
| 20260507180003 | 55 | 173 | 1.7 | 4.3 | 0.00 | 0.00 | 0.00 | 87 | 1013.3 |
| 20260507175403 | 55 | 175 | 1.7 | 4.3 | 0.00 | 0.00 | 0.00 | 87 | 1013.4 |
| 20260507174503 | 55 | 147 | 1.7 | 6.1 | 0.00 | 0.00 | 0.00 | 87 | 1013.4 |
| 20260507173603 | 56 | 163 | 3.5 | 6.1 | 0.00 | 0.00 | 0.00 | 88 | 1013.4 |
| 20260507172703 | 56 | 175 | 3.5 | 7.8 | 0.00 | 0.00 | 0.00 | 87 | 1013.4 |
| 20260507171803 | 57 | 176 | 3.5 | 11.3 | 0.00 | 0.00 | 0.00 | 85 | 1013.4 |
| 20260507170903 | 57 | 159 | 4.3 | 7.8 | 0.00 | 0.00 | 0.00 | 90 | 1013.4 |
| 20260507170003 | 58 | 136 | 4.3 | 10.4 | 0.00 | 0.00 | 0.00 | 89 | 1013.4 |
| 20260507165403 | 58 | 124 | 4.3 | 10.4 | 0.00 | 0.00 | 0.00 | 88 | 1013.4 |
| 20260507164503 | 58 | 120 | 5.2 | 11.3 | 0.00 | 0.00 | 0.00 | 88 | 1013.4 |
| 20260507163603 | 58 | 124 | 6.1 | 11.3 | 0.00 | 0.00 | 0.00 | 88 | 1013.3 |
| 20260507162703 | 58 | 97 | 2.6 | 8.7 | 0.00 | 0.00 | 0.00 | 89 | 1013.3 |
| 20260507161803 | 58 | 98 | 3.5 | 9.6 | 0.00 | 0.00 | 0.00 | 89 | 1013.3 |
| 20260507160903 | 58 | 92 | 3.5 | 7.8 | 0.00 | 0.00 | 0.00 | 86 | 1013.3 |
| 20260507160003 | 58 | 94 | 2.6 | 7.0 | 0.00 | 0.00 | 0.00 | 89 | 1013.4 |
| 20260507155403 | 58 | 94 | 2.6 | 7.8 | 0.00 | 0.00 | 0.00 | 89 | 1013.4 |
| 20260507154503 | 58 | 103 | 4.3 | 8.7 | 0.00 | 0.00 | 0.00 | 89 | 1013.5 |
| 20260507153603 | 58 | 121 | 2.6 | 7.0 | 0.00 | 0.00 | 0.00 | 90 | 1013.4 |
| 20260507152703 | 58 | 99 | 2.6 | 8.7 | 0.00 | 0.00 | 0.00 | 87 | 1013.4 |
| 20260507151803 | 59 | 94 | 4.3 | 9.6 | 0.00 | 0.00 | 0.00 | 83 | 1013.5 |
| 20260507150903 | 60 | 120 | 3.5 | 7.0 | 0.00 | 0.00 | 0.00 | 82 | 1013.6 |
| 20260507150003 | 59 | 136 | 3.5 | 7.0 | 0.00 | 0.00 | 0.00 | 83 | 1013.7 |
| 20260507145403 | 59 | 121 | 3.5 | 7.0 | 0.00 | 0.00 | 0.00 | 83 | 1013.8 |
| 20260507144503 | 59 | 87 | 3.5 | 9.6 | 0.00 | 0.00 | 0.00 | 82 | 1013.8 |
| 20260507143624 | 59 | 99 | 4.3 | 9.6 | 0.00 | 0.00 | 0.00 | 82 | 1013.9 |
| 20260507142703 | 58 | 107 | 4.3 | 11.3 | 0.00 | 0.00 | 0.00 | 82 | 1014.0 |
| 20260507141803 | 59 | 92 | 4.3 | 11.3 | 0.00 | 0.00 | 0.00 | 81 | 1014.0 |
| 20260507140903 | 59 | 103 | 4.3 | 8.7 | 0.00 | 0.00 | 0.00 | 80 | 1014.1 |
| 20260507140024 | 58 | 99 | 4.3 | 8.7 | 0.00 | 0.00 | 0.00 | 80 | 1014.2 |
| 20260507135403 | 57 | 96 | 4.3 | 10.4 | 0.00 | 0.00 | 0.00 | 80 | 1014.2 |
| 20260507134503 | 57 | 103 | 5.2 | 11.3 | 0.00 | 0.00 | 0.00 | 80 | 1014.3 |
| 20260507133603 | 57 | 102 | 4.3 | 12.2 | 0.00 | 0.00 | 0.00 | 79 | 1014.3 |
| 20260507132724 | 57 | 102 | 4.3 | 11.3 | 0.00 | 0.00 | 0.00 | 80 | 1014.4 |
| 20260507131803 | 57 | 103 | 5.2 | 11.3 | 0.00 | 0.00 | 0.00 | 80 | 1014.5 |
| 20260507130903 | 56 | 109 | 6.1 | 12.2 | 0.00 | 0.00 | 0.00 | 80 | 1014.4 |
| 20260507130003 | 55 | 104 | 4.3 | 11.3 | 0.00 | 0.00 | 0.00 | 80 | 1014.4 |
| 20260507125403 | 54 | 100 | 6.1 | 12.2 | 0.00 | 0.00 | 0.00 | 80 | 1014.5 |
| 20260507124503 | 54 | 104 | 6.1 | 12.2 | 0.00 | 0.00 | 0.00 | 80 | 1014.5 |
| 20260507123603 | 53 | 100 | 5.2 | 11.3 | 0.00 | 0.00 | 0.00 | 80 | 1014.6 |
| 20260507122705 | 53 | 97 | 4.3 | 9.6 | 0.00 | 0.00 | 0.00 | 80 | 1014.6 |
| 20260507121803 | 53 | 93 | 4.3 | 11.3 | 0.00 | 0.00 | 0.00 | 80 | 1014.5 |
| 20260507120903 | 54 | 98 | 5.2 | 11.3 | 0.00 | 0.00 | 0.00 | 78 | 1014.5 |
| 20260507120004 | 52 | 89 | 5.2 | 11.3 | 0.00 | 0.00 | 0.00 | 80 | 1014.7 |
| 20260507115424 | 51 | 94 | 4.3 | 10.4 | 0.00 | 0.00 | 0.00 | 80 | 1014.7 |
| 20260507114503 | 51 | 88 | 4.3 | 11.3 | 0.00 | 0.00 | 0.00 | 81 | 1014.7 |
| 20260507113603 | 51 | 102 | 4.3 | 10.4 | 0.00 | 0.00 | 0.00 | 80 | 1014.6 |
| 20260507112703 | 51 | 102 | 5.2 | 11.3 | 0.00 | 0.00 | 0.00 | 80 | 1014.7 |
| 20260507111803 | 51 | 104 | 5.2 | 12.2 | 0.00 | 0.00 | 0.00 | 80 | 1014.7 |